DW8824 Weather Reports


Display with metric or nautical units.
time (UTC)temp
F
wind
direction
speed
MPH
gust
MPH
rain 1hr
in
rain 24hr
in
rain mn
in
humidity
%
barometer
mb
20200920104904 76 105 12.0 25.0 0.00 0.05 0.00 64 1020.0
20200920104405 76 95 14.0 26.0 0.00 0.05 0.00 62 1020.1
20200920103904 77 83 12.0 28.0 0.00 0.05 0.00 60 1020.1
20200920103404 77 97 9.0 20.0 0.00 0.05 0.00 59 1020.2
20200920102904 76 124 12.0 20.0 0.00 0.05 0.00 60 1020.2
20200920102405 76 119 11.0 21.0 0.00 0.05 0.00 60 1020.2
20200920101905 76 106 13.0 22.0 0.00 0.05 0.00 60 1020.2
20200920101406 77 135 11.0 24.0 0.00 0.05 0.00 59 1020.3
20200920100905 77 101 12.0 21.0 0.00 0.05 0.00 59 1020.2
20200920100404 77 121 12.0 18.0 0.00 0.05 0.00 61 1020.3
20200920095907 77 88 13.0 18.0 0.00 0.05 0.00 62 1020.3
20200920095404 76 110 9.0 20.0 0.00 0.05 0.00 63 1020.4
20200920094905 76 87 13.0 24.0 0.00 0.05 0.00 63 1020.3
20200920094407 76 127 13.0 20.0 0.00 0.05 0.00 63 1020.5
20200920093913 77 83 12.0 17.0 0.00 0.05 0.00 60 1020.4
20200920093405 76 120 7.0 20.0 0.00 0.05 0.00 63 1020.5
20200920092904 76 90 12.0 20.0 0.00 0.05 0.00 63 1020.6
20200920092405 76 130 11.0 18.0 0.00 0.05 0.00 61 1020.6
20200920091907 76 110 12.0 20.0 0.00 0.05 0.00 61 1020.7
20200920091406 76 115 12.0 20.0 0.00 0.05 0.00 61 1020.7
20200920090904 76 118 10.0 20.0 0.00 0.05 0.00 60 1020.8
20200920090405 76 118 13.0 20.0 0.00 0.05 0.00 61 1020.7
20200920085912 76 101 11.0 20.0 0.00 0.05 0.00 61 1020.9
20200920085405 77 118 12.0 21.0 0.00 0.05 0.00 59 1020.8
20200920084905 77 104 10.0 21.0 0.00 0.05 0.00 59 1020.9
20200920084406 77 107 11.0 20.0 0.00 0.05 0.00 57 1021.0
20200920083904 77 119 10.0 20.0 0.00 0.05 0.00 57 1020.9
20200920083405 77 129 10.0 24.0 0.00 0.05 0.00 58 1020.9
20200920082904 77 141 8.0 20.0 0.00 0.05 0.00 59 1021.1
20200920082405 77 131 13.0 20.0 0.00 0.05 0.00 59 1021.1
20200920081912 76 127 12.0 20.0 0.00 0.05 0.00 59 1021.1
20200920081404 76 99 13.0 23.0 0.00 0.05 0.00 60 1021.2
20200920080905 76 133 12.0 22.0 0.00 0.05 0.00 60 1021.3
20200920080405 77 118 12.0 23.0 0.00 0.05 0.00 57 1021.4
20200920075907 77 110 12.0 20.0 0.00 0.05 0.00 59 1021.5
20200920075404 76 98 13.0 20.0 0.00 0.05 0.00 61 1021.6
20200920074905 76 117 13.0 21.0 0.00 0.05 0.00 62 1021.6
20200920074406 76 122 12.0 18.0 0.00 0.05 0.00 62 1021.7
20200920073905 76 126 9.0 16.0 0.00 0.05 0.00 63 1021.8
20200920073407 76 108 12.0 20.0 0.00 0.05 0.00 62 1021.8
20200920072904 76 111 10.0 20.0 0.00 0.05 0.00 64 1022.0
20200920072406 75 132 13.0 21.0 0.00 0.05 0.00 67 1021.9
20200920071904 76 97 13.0 20.0 0.00 0.05 0.00 67 1021.9
20200920071404 75 118 11.0 20.0 0.00 0.05 0.00 67 1022.1
20200920070907 75 117 10.0 21.0 0.00 0.05 0.00 65 1022.2
20200920070405 76 123 12.0 25.0 0.00 0.05 0.00 63 1022.3
20200920065906 76 107 13.0 21.0 0.00 0.05 0.00 61 1022.3
20200920065408 76 124 14.0 20.0 0.00 0.06 0.00 61 1022.2
20200920064907 76 135 10.0 20.0 0.00 0.06 0.00 61 1022.2
20200920064409 76 108 11.0 20.0 0.00 0.06 0.00 62 1022.3
20200920063906 76 112 10.0 17.0 0.00 0.06 0.00 62 1022.2
20200920063405 76 100 11.0 20.0 0.00 0.06 0.00 60 1022.4
20200920062904 76 90 12.0 20.0 0.00 0.06 0.00 60 1022.3
20200920062410 76 114 10.0 15.0 0.00 0.06 0.00 61 1022.3
20200920061904 76 101 9.0 16.0 0.00 0.06 0.00 60 1022.3
20200920061405 75 133 11.0 20.0 0.00 0.06 0.00 59 1022.4
20200920060915 76 134 13.0 20.0 0.00 0.06 0.00 57 1022.4
20200920060404 75 123 10.0 20.0 0.00 0.06 0.00 58 1022.3
20200920055904 75 119 7.0 15.0 0.00 0.06 0.00 59 1022.4
20200920055404 75 140 9.0 17.0 0.00 0.06 0.00 59 1022.4
20200920054911 75 119 10.0 14.0 0.00 0.06 0.00 60 1022.4
20200920054404 74 111 12.0 21.0 0.00 0.06 0.00 62 1022.5
20200920053905 75 137 13.0 23.0 0.00 0.06 0.00 62 1022.6
20200920053409 75 120 12.0 21.0 0.00 0.06 0.00 61 1022.5
20200920052904 75 120 12.0 21.0 0.00 0.06 0.00 61 1022.7
20200920052406 74 111 12.0 20.0 0.00 0.06 0.00 61 1022.6
20200920051905 74 116 9.0 15.0 0.00 0.06 0.00 61 1022.6
20200920051405 74 105 7.0 15.0 0.00 0.06 0.00 63 1022.6
20200920050904 74 135 10.0 14.0 0.00 0.06 0.00 64 1022.6
20200920050404 74 139 7.0 18.0 0.00 0.06 0.00 65 1022.6
20200920045908 74 113 9.0 13.0 0.00 0.06 0.00 66 1022.6
20200920045405 73 108 5.0 12.0 0.00 0.06 0.00 66 1022.5
20200920044904 73 138 8.0 14.0 0.00 0.06 0.00 66 1022.5
20200920044405 73 138 9.0 13.0 0.00 0.06 0.00 66 1022.5
20200920043906 73 135 6.0 12.0 0.00 0.06 0.00 66 1022.4
20200920043405 72 129 7.0 12.0 0.00 0.06 0.00 67 1022.4
20200920042905 71 136 7.0 12.0 0.00 0.06 0.00 67 1022.4
20200920042406 71 162 5.0 12.0 0.00 0.06 0.00 68 1022.3
20200920041905 70 164 5.0 10.0 0.00 0.06 0.00 70 1022.2
20200920041405 70 161 7.0 14.0 0.00 0.06 0.00 71 1022.2
20200920040908 70 159 4.0 14.0 0.00 0.06 0.00 69 1022.2
20200920040410 70 158 9.0 16.0 0.00 0.06 0.00 69 1022.3
20200920035904 70 150 8.0 16.0 0.00 0.06 0.00 71 1022.2
20200920035406 71 119 10.0 16.0 0.00 0.06 0.00 70 1022.2
20200920034904 71 123 12.0 23.0 0.00 0.07 0.00 69 1022.2
20200920034407 72 118 12.0 20.0 0.00 0.07 0.00 67 1022.2
20200920033904 72 121 8.0 12.0 0.00 0.07 0.00 64 1022.1
20200920033406 72 106 6.0 12.0 0.00 0.07 0.00 64 1022.0
20200920032904 72 109 8.0 12.0 0.00 0.07 0.00 62 1022.1
20200920032405 71 109 3.0 12.0 0.00 0.07 0.00 65 1021.9
20200920031908 71 129 3.0 8.0 0.00 0.07 0.00 70 1021.9
20200920031406 71 127 3.0 3.0 0.00 0.07 0.00 71 1021.7
20200920030905 71 143 3.0 7.0 0.00 0.07 0.00 71 1021.6
20200920030407 71 129 3.0 8.0 0.00 0.07 0.00 71 1021.6
20200920025908 71 124 5.0 12.0 0.00 0.07 0.00 70 1021.6
20200920025414 71 119 6.0 10.0 0.00 0.07 0.00 69 1021.6
20200920024908 71 122 6.0 10.0 0.00 0.07 0.00 65 1021.5
20200920024407 71 121 6.0 12.0 0.00 0.07 0.00 64 1021.5
20200920023907 71 94 7.0 15.0 0.00 0.07 0.00 65 1021.4
20200920023409 71 109 9.0 16.0 0.00 0.07 0.00 67 1021.3
20200920022908 71 104 6.0 10.0 0.00 0.07 0.00 70 1021.3
20200920022406 70 108 7.0 12.0 0.00 0.07 0.00 70 1021.2
20200920021907 70 116 6.0 14.0 0.00 0.07 0.00 73 1021.3
20200920021406 70 124 6.0 12.0 0.00 0.07 0.00 75 1021.2
20200920020905 69 146 6.0 10.0 0.00 0.07 0.00 75 1021.2
20200920020408 69 146 3.0 7.0 0.00 0.07 0.00 76 1021.1
20200920015904 69 134 5.0 9.0 0.00 0.07 0.00 76 1021.0
20200920015406 69 147 5.0 9.0 0.00 0.07 0.00 76 1020.9
20200920014905 69 142 6.0 12.0 0.00 0.07 0.00 76 1021.0
20200920014405 69 140 5.0 9.0 0.00 0.07 0.00 77 1020.9
20200920013904 68 137 4.0 9.0 0.00 0.07 0.00 77 1020.8
20200920013405 68 152 4.0 9.0 0.00 0.07 0.00 77 1020.8
20200920012905 68 110 5.0 9.0 0.00 0.07 0.00 77 1020.8
20200920012408 68 176 2.0 6.0 0.00 0.07 0.00 76 1020.6
20200920011909 68 191 3.0 7.0 0.00 0.07 0.00 76 1020.6
20200920011415 68 204 3.0 7.0 0.00 0.07 0.00 75 1020.6
20200920010907 69 177 4.0 7.0 0.00 0.07 0.00 75 1020.7
20200920010413 69 150 2.0 7.0 0.00 0.07 0.00 75 1020.8
20200920005907 69 153 5.0 8.0 0.00 0.07 0.00 75 1020.8
20200920005408 69 163 5.0 9.0 0.00 0.07 0.00 75 1020.7
20200920004905 68 146 3.0 8.0 0.00 0.07 0.00 75 1020.7
20200920004404 68 143 4.0 8.0 0.00 0.07 0.00 76 1020.6
20200920003910 68 138 3.0 9.0 0.00 0.07 0.00 76 1020.6
20200920003405 68 152 4.0 12.0 0.00 0.07 0.00 77 1020.5
20200920002904 68 153 6.0 12.0 0.00 0.07 0.00 77 1020.3
20200920002405 68 153 6.0 9.0 0.00 0.07 0.00 78 1020.4
20200920001909 68 155 5.0 10.0 0.00 0.07 0.00 78 1020.3
20200920001405 68 151 3.0 12.0 0.00 0.07 0.00 78 1020.3
20200920000904 68 156 6.0 10.0 0.00 0.07 0.00 78 1020.4
20200920000406 68 163 5.0 10.0 0.00 0.07 0.00 78 1020.3
20200919235906 68 162 4.0 10.0 0.00 0.07 0.00 78 1020.4
20200919235406 68 171 5.0 10.0 0.00 0.07 0.00 78 1020.3
20200919234912 68 170 4.0 10.0 0.00 0.07 0.00 78 1020.3
20200919234405 68 161 6.0 9.0 0.00 0.07 0.00 78 1020.4
20200919233926 68 146 3.0 10.0 0.00 0.07 0.00 78 1020.5
20200919233406 68 158 5.0 7.0 0.00 0.07 0.00 77 1020.4
20200919232905 68 177 3.0 8.0 0.00 0.07 0.00 77 1020.3
20200919232407 68 172 5.0 9.0 0.00 0.07 0.00 77 1020.4
20200919231904 69 165 5.0 9.0 0.00 0.07 0.00 76 1020.4
20200919231406 69 176 4.0 7.0 0.00 0.07 0.00 76 1020.5
20200919230904 69 173 5.0 12.0 0.00 0.07 0.00 76 1020.5
20200919230405 69 179 5.0 7.0 0.00 0.07 0.00 75 1020.6
20200919225908 70 181 3.0 6.0 0.00 0.07 0.00 75 1020.7
20200919225404 70 179 2.0 5.0 0.00 0.07 0.00 74 1020.7
20200919224904 70 142 4.0 9.0 0.00 0.07 0.00 74 1020.7
20200919224405 70 153 5.0 9.0 0.00 0.07 0.00 74 1020.8
20200919223906 70 128 5.0 10.0 0.00 0.07 0.00 73 1020.8
20200919223407 71 131 6.0 9.0 0.00 0.07 0.00 74 1020.9
20200919222904 71 117 5.0 12.0 0.00 0.07 0.00 73 1020.9
20200919222405 71 124 5.0 12.0 0.00 0.07 0.00 73 1020.9
20200919221909 71 120 6.0 12.0 0.00 0.08 0.00 73 1021.0
20200919221414 71 110 5.0 14.0 0.00 0.10 0.00 73 1021.0
20200919220906 70 117 6.0 13.0 0.00 0.10 0.00 74 1021.0
20200919220405 70 121 4.0 10.0 0.00 0.10 0.00 75 1021.0
20200919215904 70 116 5.0 9.0 0.00 0.10 0.00 75 1021.0
20200919215404 70 130 6.0 10.0 0.00 0.10 0.00 76 1021.1
20200919214904 69 137 3.0 10.0 0.00 0.10 0.00 77 1021.1
20200919214405 69 127 5.0 7.0 0.00 0.10 0.00 78 1021.1
20200919213904 69 131 4.0 9.0 0.00 0.10 0.00 78 1021.1
20200919213406 69 129 4.0 8.0 0.00 0.10 0.00 79 1021.2
20200919212904 69 140 3.0 6.0 0.00 0.10 0.00 79 1021.2
20200919212411 69 163 4.0 9.0 0.00 0.10 0.00 79 1021.2
20200919211906 69 173 3.0 6.0 0.00 0.10 0.00 79 1021.3
20200919210907 69 163 5.0 8.0 0.00 0.10 0.00 79 1021.4
20200919210407 69 169 5.0 7.0 0.00 0.10 0.00 80 1021.4
20200919205905 69 150 5.0 9.0 0.00 0.10 0.00 80 1021.5
20200919205404 69 119 3.0 6.0 0.00 0.10 0.00 80 1021.6
20200919204910 69 123 3.0 7.0 0.00 0.10 0.00 80 1021.6
20200919204405 69 142 5.0 9.0 0.00 0.10 0.00 80 1021.7
20200919203904 69 136 2.0 5.0 0.00 0.10 0.00 80 1021.6
20200919203404 69 143 2.0 6.0 0.00 0.10 0.00 80 1021.7
20200919202905 69 140 2.0 6.0 0.00 0.10 0.00 80 1021.8
20200919202405 69 132 4.0 9.0 0.00 0.10 0.00 80 1021.8
20200919201906 69 134 4.0 9.0 0.00 0.10 0.00 79 1021.9
20200919201406 70 152 3.0 7.0 0.00 0.10 0.00 79 1022.0
20200919200907 70 122 5.0 10.0 0.00 0.10 0.00 79 1021.9
20200919200406 70 136 6.0 12.0 0.00 0.10 0.00 79 1021.9
20200919195904 70 121 4.0 9.0 0.00 0.10 0.10 80 1022.0
20200919195407 70 140 4.0 9.0 0.00 0.10 0.10 80 1021.9
20200919194911 69 145 5.0 12.0 0.00 0.10 0.10 80 1022.0
20200919194404 69 118 6.0 12.0 0.00 0.10 0.10 81 1022.0
20200919193905 69 121 4.0 7.0 0.00 0.10 0.10 82 1022.1
20200919193406 69 143 2.0 7.0 0.00 0.10 0.10 82 1022.0
20200919192905 69 152 3.0 7.0 0.00 0.10 0.10 82 1022.0
20200919192405 69 147 3.0 6.0 0.00 0.10 0.10 82 1022.0
20200919191906 69 134 2.0 3.0 0.00 0.10 0.10 82 1022.0
20200919191405 69 136 2.0 3.0 0.00 0.10 0.10 82 1021.9
20200919190906 69 163 2.0 5.0 0.00 0.10 0.10 82 1021.9
20200919190405 69 190 3.0 5.0 0.00 0.10 0.10 82 1021.9
20200919185905 69 174 3.0 6.0 0.00 0.10 0.10 82 1022.0
20200919185406 69 156 3.0 5.0 0.00 0.10 0.10 82 1022.0
20200919184906 69 182 3.0 7.0 0.00 0.10 0.10 82 1021.9
20200919184405 69 153 3.0 6.0 0.00 0.10 0.10 82 1022.0
20200919183405 68 153 2.0 5.0 0.00 0.10 0.10 82 1022.0
20200919182907 68 147 4.0 6.0 0.00 0.10 0.10 83 1022.0
20200919182405 68 153 3.0 8.0 0.00 0.10 0.10 83 1022.1
20200919181905 68 153 2.0 6.0 0.00 0.10 0.10 83 1022.1
20200919181406 68 169 3.0 6.0 0.00 0.10 0.10 83 1022.1
20200919180906 68 160 2.0 7.0 0.00 0.10 0.10 83 1022.1
20200919180405 68 169 3.0 6.0 0.00 0.10 0.10 83 1022.1
20200919175904 68 183 4.0 7.0 0.00 0.10 0.10 83 1022.1
20200919174905 68 162 3.0 5.0 0.00 0.10 0.10 83 1022.0
20200919174405 68 169 3.0 5.0 0.00 0.10 0.10 84 1022.1
20200919173913 68 169 3.0 6.0 0.00 0.10 0.10 84 1022.1
20200919173406 68 156 3.0 5.0 0.00 0.10 0.10 84 1022.1
20200919172905 68 153 2.0 7.0 0.00 0.10 0.10 84 1022.1
20200919172404 68 153 3.0 7.0 0.00 0.10 0.10 84 1022.1
20200919171905 68 148 3.0 8.0 0.00 0.10 0.10 85 1022.1
20200919171405 68 144 3.0 8.0 0.00 0.10 0.10 85 1022.1
20200919170405 67 138 3.0 6.0 0.00 0.10 0.10 85 1022.0
20200919165905 67 139 3.0 5.0 0.00 0.10 0.10 85 1022.1
20200919165407 67 133 2.0 3.0 0.00 0.10 0.10 85 1022.0
20200919164912 67 130 2.0 5.0 0.00 0.10 0.10 85 1021.9
20200919164405 67 146 3.0 7.0 0.00 0.10 0.10 85 1021.9
20200919163904 67 157 4.0 6.0 0.01 0.10 0.10 85 1021.8
20200919163405 67 154 3.0 7.0 0.01 0.10 0.10 85 1021.7
20200919162905 67 157 2.0 7.0 0.01 0.10 0.10 85 1021.8
20200919162406 66 152 5.0 7.0 0.01 0.10 0.10 85 1021.7
20200919161906 66 178 4.0 10.0 0.01 0.10 0.10 85 1021.6
20200919161410 66 153 5.0 10.0 0.01 0.10 0.10 85 1021.6
20200919160904 66 141 3.0 9.0 0.02 0.10 0.10 85 1021.6
20200919160407 66 149 3.0 9.0 0.03 0.10 0.10 85 1021.5
20200919155905 66 140 6.0 10.0 0.04 0.10 0.10 85 1021.5
20200919155407 65 148 2.0 7.0 0.04 0.10 0.10 85 1021.5
20200919154905 66 161 4.0 9.0 0.04 0.10 0.10 85 1021.5
20200919154408 66 158 4.0 8.0 0.04 0.10 0.10 85 1021.5
20200919153906 66 136 5.0 10.0 0.03 0.09 0.09 85 1021.5
20200919153404 66 143 8.0 13.0 0.03 0.09 0.09 85 1021.5
20200919152905 66 127 5.0 10.0 0.03 0.09 0.09 85 1021.4
20200919152405 66 144 6.0 9.0 0.03 0.09 0.09 85 1021.4
20200919151905 67 122 7.0 13.0 0.03 0.09 0.09 84 1021.5
20200919151405 67 104 9.0 25.0 0.03 0.09 0.09 83 1021.5
20200919150904 67 124 6.0 12.0 0.02 0.08 0.08 83 1021.4
20200919150405 67 147 6.0 12.0 0.01 0.07 0.07 83 1021.2
20200919145904 67 135 5.0 10.0 0.00 0.06 0.06 82 1021.0
20200919145406 67 148 5.0 8.0 0.00 0.06 0.06 82 1021.0
20200919144907 67 147 3.0 7.0 0.00 0.06 0.06 82 1020.9
20200919144405 67 160 2.0 6.0 0.00 0.06 0.06 81 1020.7
20200919143906 67 178 2.0 7.0 0.00 0.06 0.06 81 1020.7
20200919143408 67 160 2.0 8.0 0.00 0.06 0.06 81 1020.7
20200919142904 67 140 4.0 7.0 0.00 0.06 0.06 81 1020.6
20200919142405 67 134 3.0 5.0 0.00 0.06 0.06 82 1020.6
20200919141907 67 136 3.0 7.0 0.01 0.06 0.06 82 1020.6
20200919141404 67 160 5.0 8.0 0.01 0.06 0.06 83 1020.6
20200919140909 67 163 3.0 8.0 0.01 0.06 0.06 84 1020.5
20200919140405 67 139 6.0 9.0 0.01 0.06 0.06 84 1020.6
20200919135904 67 156 4.0 8.0 0.01 0.06 0.06 84 1020.7
20200919135405 67 135 5.0 10.0 0.01 0.06 0.06 84 1020.8
20200919134905 67 123 6.0 12.0 0.01 0.06 0.06 84 1020.7
20200919134406 67 121 7.0 12.0 0.01 0.06 0.06 84 1020.8
20200919133904 67 114 5.0 10.0 0.01 0.06 0.06 84 1020.8
20200919133407 67 132 6.0 12.0 0.01 0.06 0.06 83 1020.8
20200919132907 67 120 10.0 17.0 0.01 0.06 0.06 83 1020.8
20200919132406 68 115 6.0 12.0 0.01 0.06 0.06 83 1020.8
20200919131915 68 90 6.0 9.0 0.00 0.06 0.06 83 1020.7
20200919130913 68 90 7.0 13.0 0.00 0.06 0.06 81 1020.6
20200919130405 69 91 8.0 14.0 0.00 0.06 0.06 78 1020.6
20200919125904 70 88 10.0 15.0 0.00 0.06 0.06 76 1020.5
20200919125414 70 83 11.0 16.0 0.00 0.06 0.06 73 1020.3
20200919124904 70 89 10.0 20.0 0.00 0.06 0.06 72 1020.3
20200919124406 70 80 10.0 17.0 0.00 0.06 0.06 72 1020.2
20200919123904 71 88 10.0 18.0 0.00 0.06 0.06 71 1020.3
20200919123417 71 93 11.0 20.0 0.00 0.06 0.06 72 1020.1
20200919122905 71 84 6.0 16.0 0.00 0.06 0.06 73 1020.1
20200919122406 71 83 10.0 20.0 0.00 0.06 0.06 75 1020.2
20200919121904 71 73 12.0 21.0 0.00 0.06 0.06 76 1020.2
20200919121408 71 76 11.0 20.0 0.00 0.06 0.06 75 1020.1
20200919120905 71 86 13.0 20.0 0.00 0.06 0.06 74 1020.0
20200919120405 71 89 7.0 15.0 0.00 0.06 0.06 75 1020.0
20200919115905 71 76 10.0 16.0 0.00 0.06 0.06 75 1020.1
20200919115406 71 81 14.0 22.0 0.00 0.06 0.06 74 1020.0
20200919114907 72 90 12.0 20.0 0.00 0.06 0.06 73 1020.0
20200919114404 72 77 11.0 17.0 0.00 0.06 0.06 72 1019.8
20200919113905 72 97 12.0 17.0 0.00 0.06 0.06 72 1019.9
20200919113406 73 89 9.0 18.0 0.00 0.06 0.06 71 1019.8
20200919112907 73 71 9.0 18.0 0.00 0.06 0.06 70 1019.8
20200919112410 73 75 9.0 17.0 0.00 0.06 0.06 70 1019.9
20200919111905 74 91 10.0 18.0 0.00 0.06 0.06 69 1019.8
20200919111405 75 117 14.0 24.0 0.00 0.06 0.06 60 1019.8
20200919110910 75 118 10.0 20.0 0.00 0.06 0.06 62 1019.8
20200919110404 75 94 10.0 20.0 0.00 0.06 0.06 62 1019.7
20200919105910 75 112 9.0 15.0 0.00 0.06 0.06 65 1019.8